Time,TemperatureF,DewpointF,PressureIn,WindDirection,WindDirectionDegrees,WindSpeedMPH,WindSpeedGustMPH,Humidity,HourlyPrecipIn,Conditions,Clouds,dailyrainin,SoftwareType,DateUTC
2013-06-10 00:00:00,69.6,69.0,29.93,ENE,61,1.0,1.0,98,0.00,,,1.41,Wunderground v.1.15,2013-06-10 05:00:00,
2013-06-10 00:05:00,69.5,68.9,29.93,NNE,17,1.0,2.0,98,0.00,,,0.00,Wunderground v.1.15,2013-06-10 05:05:00,
2013-06-10 00:12:00,69.5,68.9,29.93,NNE,13,1.0,2.0,98,0.00,,,0.00,Wunderground v.1.15,2013-06-10 05:12:00,
2013-06-10 00:18:00,69.5,68.9,29.93,North,360,1.0,2.0,98,0.00,,,0.00,Wunderground v.1.15,2013-06-10 05:18:00,
2013-06-10 00:23:00,69.6,68.7,29.93,North,356,1.0,2.0,97,0.00,,,0.00,Wunderground v.1.15,2013-06-10 05:23:00,
2013-06-10 00:29:00,69.6,68.7,29.92,North,2,2.0,3.0,97,0.00,,,0.00,Wunderground v.1.15,2013-06-10 05:29:00,
2013-06-10 00:34:00,69.6,68.7,29.92,NE,44,2.0,5.0,97,0.00,,,0.00,Wunderground v.1.15,2013-06-10 05:34:00,
2013-06-10 00:39:00,69.6,68.7,29.92,NE,55,1.0,5.0,97,0.00,,,0.00,Wunderground v.1.15,2013-06-10 05:39:00,
2013-06-10 00:46:00,69.5,68.6,29.92,NE,39,1.0,2.0,97,0.00,,,0.00,Wunderground v.1.15,2013-06-10 05:46:00,
2013-06-10 00:52:00,69.4,68.5,29.92,NE,48,1.0,3.0,97,0.00,,,0.00,Wunderground v.1.15,2013-06-10 05:52:00,
2013-06-10 00:58:00,69.4,68.2,29.92,NNE,30,2.0,3.0,96,0.00,,,0.00,Wunderground v.1.15,2013-06-10 05:58:00,
2013-06-10 01:03:00,69.4,68.2,29.91,North,351,2.0,4.0,96,0.00,,,0.00,Wunderground v.1.15,2013-06-10 06:03:00,
2013-06-10 01:09:00,69.3,68.1,29.91,NNE,27,2.0,4.0,96,0.00,,,0.00,Wunderground v.1.15,2013-06-10 06:09:00,
2013-06-10 01:14:00,69.3,68.1,29.91,ENE,66,1.0,2.0,96,0.00,,,0.00,Wunderground v.1.15,2013-06-10 06:14:00,
2013-06-10 01:19:00,69.3,68.1,29.91,ENE,66,1.0,2.0,96,0.00,,,0.00,Wunderground v.1.15,2013-06-10 06:19:00,
2013-06-10 01:25:00,69.2,68.0,29.91,ENE,69,1.0,2.0,96,0.00,,,0.00,Wunderground v.1.15,2013-06-10 06:25:00,
2013-06-10 01:30:00,69.2,68.0,29.90,North,8,2.0,2.0,96,0.00,,,0.00,Wunderground v.1.15,2013-06-10 06:30:00,
2013-06-10 01:35:00,69.1,67.9,29.90,ENE,75,2.0,3.0,96,0.00,,,0.00,Wunderground v.1.15,2013-06-10 06:35:00,
2013-06-10 01:42:00,69.1,67.6,29.90,NE,49,2.0,3.0,95,0.00,,,0.00,Wunderground v.1.15,2013-06-10 06:42:00,
2013-06-10 01:48:00,69.2,67.7,29.90,East,88,2.0,4.0,95,0.00,,,0.00,Wunderground v.1.15,2013-06-10 06:48:00,
2013-06-10 01:53:00,69.1,67.6,29.90,North,6,2.0,4.0,95,0.00,,,0.00,Wunderground v.1.15,2013-06-10 06:53:00,
2013-06-10 01:59:00,69.0,67.5,29.90,NE,47,2.0,4.0,95,0.00,,,0.00,Wunderground v.1.15,2013-06-10 06:59:00,
2013-06-10 02:04:00,69.0,67.8,29.90,North,9,2.0,5.0,96,0.00,,,0.00,Wunderground v.1.15,2013-06-10 07:04:00,
2013-06-10 02:09:00,68.9,67.7,29.90,ENE,73,2.0,5.0,96,0.00,,,0.00,Wunderground v.1.15,2013-06-10 07:09:00,
2013-06-10 02:15:00,69.0,67.8,29.90,ENE,74,2.0,3.0,96,0.00,,,0.00,Wunderground v.1.15,2013-06-10 07:15:00,
2013-06-10 02:20:00,68.9,67.7,29.89,NE,53,2.0,2.0,96,0.00,,,0.00,Wunderground v.1.15,2013-06-10 07:20:00,
2013-06-10 02:26:00,68.9,67.7,29.89,NNE,12,2.0,3.0,96,0.00,,,0.00,Wunderground v.1.15,2013-06-10 07:26:00,
2013-06-10 02:31:00,68.9,67.7,29.89,NNE,17,2.0,3.0,96,0.00,,,0.00,Wunderground v.1.15,2013-06-10 07:31:00,
2013-06-10 02:36:00,68.9,67.7,29.89,North,5,2.0,4.0,96,0.00,,,0.00,Wunderground v.1.15,2013-06-10 07:36:00,
2013-06-10 02:42:00,68.9,67.7,29.89,NNE,33,2.0,4.0,96,0.00,,,0.00,Wunderground v.1.15,2013-06-10 07:42:00,
2013-06-10 02:47:00,68.9,67.7,29.88,ENE,67,2.0,4.0,96,0.00,,,0.00,Wunderground v.1.15,2013-06-10 07:47:00,
2013-06-10 02:52:00,68.9,67.7,29.88,ENE,64,2.0,5.0,96,0.00,,,0.00,Wunderground v.1.15,2013-06-10 07:52:00,
2013-06-10 02:57:00,68.8,67.6,29.88,NE,46,2.0,5.0,96,0.00,,,0.00,Wunderground v.1.15,2013-06-10 07:57:00,
2013-06-10 03:03:00,68.8,67.6,29.87,North,349,2.0,3.0,96,0.00,,,0.00,Wunderground v.1.15,2013-06-10 08:03:00,
2013-06-10 03:08:00,68.7,67.5,29.88,NE,40,2.0,3.0,96,0.00,,,0.00,Wunderground v.1.15,2013-06-10 08:08:00,
2013-06-10 03:13:00,68.7,67.5,29.88,NE,43,1.0,2.0,96,0.00,,,0.00,Wunderground v.1.15,2013-06-10 08:13:00,
2013-06-10 03:19:00,68.7,67.5,29.88,NNW,339,1.0,3.0,96,0.00,,,0.00,Wunderground v.1.15,2013-06-10 08:19:00,
2013-06-10 03:24:00,68.7,67.5,29.88,NNE,20,2.0,3.0,96,0.00,,,0.00,Wunderground v.1.15,2013-06-10 08:24:00,
2013-06-10 03:29:00,68.6,67.4,29.88,NNE,27,2.0,3.0,96,0.00,,,0.00,Wunderground v.1.15,2013-06-10 08:29:00,
2013-06-10 03:35:00,68.6,67.4,29.88,NNE,23,2.0,3.0,96,0.00,,,0.00,Wunderground v.1.15,2013-06-10 08:35:00,
2013-06-10 03:40:00,68.6,67.4,29.88,East,81,2.0,2.0,96,0.00,,,0.01,Wunderground v.1.15,2013-06-10 08:40:00,
2013-06-10 03:46:00,68.5,67.3,29.88,NE,43,2.0,5.0,96,0.00,,,0.01,Wunderground v.1.15,2013-06-10 08:46:00,
2013-06-10 03:51:00,68.4,67.2,29.88,NNE,27,2.0,2.0,96,0.00,,,0.01,Wunderground v.1.15,2013-06-10 08:51:00,
2013-06-10 03:56:00,68.3,67.1,29.87,NE,38,2.0,4.0,96,0.00,,,0.01,Wunderground v.1.15,2013-06-10 08:56:00,
2013-06-10 04:02:00,68.3,67.4,29.87,NE,49,2.0,2.0,97,0.00,,,0.01,Wunderground v.1.15,2013-06-10 09:02:00,
2013-06-10 04:07:00,68.3,67.4,29.87,NNW,344,2.0,5.0,97,0.00,,,0.01,Wunderground v.1.15,2013-06-10 09:07:00,
2013-06-10 04:13:00,68.3,67.4,29.88,NE,46,2.0,3.0,97,0.00,,,0.01,Wunderground v.1.15,2013-06-10 09:13:00,
2013-06-10 04:18:00,68.3,67.1,29.88,NE,38,2.0,3.0,96,0.36,,,0.03,Wunderground v.1.15,2013-06-10 09:18:00,
2013-06-10 04:23:00,68.3,67.1,29.88,NNE,15,2.0,5.0,96,2.16,,,0.17,Wunderground v.1.15,2013-06-10 09:23:00,
2013-06-10 04:29:00,68.1,67.2,29.88,NE,48,2.0,5.0,97,0.72,,,0.30,Wunderground v.1.15,2013-06-10 09:29:00,
2013-06-10 04:34:00,68.1,67.2,29.88,NE,37,2.0,3.0,97,1.09,,,0.44,Wunderground v.1.15,2013-06-10 09:34:00,
2013-06-10 04:39:00,68.0,67.1,29.88,NNW,332,2.0,3.0,97,0.23,,,0.47,Wunderground v.1.15,2013-06-10 09:39:00,
2013-06-10 04:45:00,68.1,67.2,29.88,NE,55,2.0,3.0,97,0.24,,,0.50,Wunderground v.1.15,2013-06-10 09:45:00,
2013-06-10 04:50:00,68.1,67.2,29.88,North,9,1.0,1.0,97,0.08,,,0.50,Wunderground v.1.15,2013-06-10 09:50:00,
2013-06-10 04:55:00,68.1,67.2,29.88,NNE,26,1.0,2.0,97,0.06,,,0.51,Wunderground v.1.15,2013-06-10 09:55:00,
2013-06-10 05:01:00,68.0,67.1,29.88,NE,34,1.0,2.0,97,0.21,,,0.53,Wunderground v.1.15,2013-06-10 10:01:00,
2013-06-10 05:07:00,68.0,67.1,29.88,NE,48,1.0,2.0,97,0.20,,,0.55,Wunderground v.1.15,2013-06-10 10:07:00,
2013-06-10 05:13:00,68.0,67.1,29.88,North,351,1.0,3.0,97,0.11,,,0.56,Wunderground v.1.15,2013-06-10 10:13:00,
2013-06-10 05:18:00,68.0,67.1,29.89,NNE,19,2.0,6.0,97,0.06,,,0.56,Wunderground v.1.15,2013-06-10 10:18:00,
2013-06-10 05:24:00,68.0,67.1,29.89,NE,53,2.0,6.0,97,0.04,,,0.56,Wunderground v.1.15,2013-06-10 10:24:00,
2013-06-10 05:30:00,67.9,67.0,29.88,ENE,61,3.0,3.0,97,0.00,,,0.56,Wunderground v.1.15,2013-06-10 10:30:00,
2013-06-10 05:36:00,67.8,66.9,29.88,ENE,65,3.0,7.0,97,0.00,,,0.57,Wunderground v.1.15,2013-06-10 10:36:00,
2013-06-10 05:41:00,67.7,66.8,29.88,North,352,3.0,5.0,97,0.00,,,0.57,Wunderground v.1.15,2013-06-10 10:41:00,
2013-06-10 05:47:00,67.5,66.6,29.90,NNE,24,2.0,5.0,97,1.83,,,0.62,Wunderground v.1.15,2013-06-10 10:47:00,
2013-06-10 05:52:00,67.4,66.5,29.91,NNE,23,2.0,3.0,97,1.41,,,0.71,Wunderground v.1.15,2013-06-10 10:52:00,
2013-06-10 05:57:00,67.3,66.4,29.90,NE,38,3.0,6.0,97,0.40,,,0.76,Wunderground v.1.15,2013-06-10 10:57:00,
2013-06-10 06:03:00,67.2,66.3,29.91,North,351,3.0,3.0,97,0.31,,,0.79,Wunderground v.1.15,2013-06-10 11:03:00,
2013-06-10 06:08:00,67.2,66.3,29.91,NE,46,2.0,3.0,97,0.14,,,0.80,Wunderground v.1.15,2013-06-10 11:08:00,
2013-06-10 06:14:00,67.2,66.3,29.91,NNE,15,3.0,4.0,97,0.34,,,0.82,Wunderground v.1.15,2013-06-10 11:14:00,
2013-06-10 06:19:00,67.2,66.3,29.91,ENE,58,3.0,6.0,97,0.22,,,0.84,Wunderground v.1.15,2013-06-10 11:19:00,
2013-06-10 06:24:00,67.1,66.2,29.90,North,349,2.0,3.0,97,0.08,,,0.84,Wunderground v.1.15,2013-06-10 11:24:00,
2013-06-10 06:30:00,67.1,66.2,29.89,NNE,32,2.0,2.0,97,0.05,,,0.85,Wunderground v.1.15,2013-06-10 11:30:00,
2013-06-10 06:35:00,67.1,66.2,29.89,NE,55,1.0,4.0,97,0.13,,,0.86,Wunderground v.1.15,2013-06-10 11:35:00,
2013-06-10 06:41:00,67.0,66.1,29.90,NNE,20,1.0,2.0,97,0.06,,,0.86,Wunderground v.1.15,2013-06-10 11:41:00,
2013-06-10 06:47:00,66.8,65.9,29.90,North,2,2.0,2.0,97,0.04,,,0.86,Wunderground v.1.15,2013-06-10 11:47:00,
2013-06-10 06:53:00,66.7,65.8,29.90,NNW,338,2.0,2.0,97,0.00,,,0.87,Wunderground v.1.15,2013-06-10 11:53:00,
2013-06-10 06:58:00,66.6,65.7,29.91,NE,48,2.0,4.0,97,0.19,,,0.89,Wunderground v.1.15,2013-06-10 11:58:00,
2013-06-10 07:04:00,66.6,65.7,29.91,NE,46,2.0,6.0,97,0.15,,,0.90,Wunderground v.1.15,2013-06-10 12:04:00,
2013-06-10 07:10:00,66.5,65.6,29.92,NE,47,2.0,2.0,97,0.06,,,0.90,Wunderground v.1.15,2013-06-10 12:10:00,
2013-06-10 07:16:00,66.6,65.7,29.92,ENE,78,2.0,3.0,97,0.04,,,0.90,Wunderground v.1.15,2013-06-10 12:16:00,
2013-06-10 07:21:00,66.8,65.9,29.92,North,351,2.0,4.0,97,0.00,,,0.90,Wunderground v.1.15,2013-06-10 12:21:00,
2013-06-10 07:26:00,66.8,65.9,29.92,East,79,2.0,4.0,97,0.00,,,0.90,Wunderground v.1.15,2013-06-10 12:26:00,
2013-06-10 07:32:00,67.0,66.1,29.92,NE,44,2.0,2.0,97,0.00,,,0.90,Wunderground v.1.15,2013-06-10 12:32:00,
2013-06-10 07:37:00,67.1,66.2,29.92,North,9,2.0,7.0,97,0.00,,,0.90,Wunderground v.1.15,2013-06-10 12:37:00,
2013-06-10 07:43:00,67.1,66.2,29.92,NE,53,2.0,4.0,97,0.00,,,0.90,Wunderground v.1.15,2013-06-10 12:43:00,
2013-06-10 07:48:00,67.1,66.2,29.92,NE,53,2.0,4.0,97,0.00,,,0.90,Wunderground v.1.15,2013-06-10 12:48:00,
2013-06-10 07:53:00,67.3,66.4,29.92,NE,56,2.0,4.0,97,0.00,,,0.90,Wunderground v.1.15,2013-06-10 12:53:00,
2013-06-10 07:59:00,67.5,66.6,29.92,North,8,2.0,4.0,97,0.00,,,0.90,Wunderground v.1.15,2013-06-10 12:59:00,
2013-06-10 08:04:00,67.7,66.8,29.92,NE,54,2.0,5.0,97,0.00,,,0.90,Wunderground v.1.15,2013-06-10 13:04:00,
2013-06-10 08:09:00,67.8,66.9,29.93,ENE,69,2.0,5.0,97,0.00,,,0.90,Wunderground v.1.15,2013-06-10 13:09:00,
2013-06-10 08:15:00,67.9,67.0,29.92,NNW,348,2.0,3.0,97,0.00,,,0.90,Wunderground v.1.15,2013-06-10 13:15:00,
2013-06-10 08:20:00,68.2,67.3,29.93,North,355,2.0,3.0,97,0.00,,,0.90,Wunderground v.1.15,2013-06-10 13:20:00,
2013-06-10 08:26:00,68.4,67.5,29.93,North,352,2.0,3.0,97,0.00,,,0.90,Wunderground v.1.15,2013-06-10 13:26:00,
2013-06-10 08:31:00,68.6,67.4,29.94,North,5,2.0,2.0,96,0.00,,,0.90,Wunderground v.1.15,2013-06-10 13:31:00,
2013-06-10 08:37:00,68.5,67.3,29.93,East,86,2.0,3.0,96,0.00,,,0.90,Wunderground v.1.15,2013-06-10 13:37:00,
2013-06-10 08:42:00,68.6,67.4,29.93,NNE,26,2.0,4.0,96,0.00,,,0.90,Wunderground v.1.15,2013-06-10 13:42:00,
2013-06-10 08:48:00,69.0,67.8,29.93,NNE,12,2.0,4.0,96,0.00,,,0.90,Wunderground v.1.15,2013-06-10 13:48:00,
2013-06-10 08:53:00,69.5,68.3,29.93,NNE,25,2.0,2.0,96,0.00,,,0.90,Wunderground v.1.15,2013-06-10 13:53:00,
2013-06-10 08:59:00,69.9,68.4,29.94,NNE,15,2.0,4.0,95,0.00,,,0.90,Wunderground v.1.15,2013-06-10 13:59:00,
2013-06-10 09:05:00,70.2,68.4,29.93,North,1,2.0,4.0,94,0.00,,,0.90,Wunderground v.1.15,2013-06-10 14:05:00,
2013-06-10 09:10:00,70.6,68.2,29.93,NNW,342,3.0,4.0,92,0.00,,,0.90,Wunderground v.1.15,2013-06-10 14:10:00,
2013-06-10 09:16:00,71.0,68.2,29.93,NNE,19,3.0,4.0,91,0.00,,,0.90,Wunderground v.1.15,2013-06-10 14:16:00,
2013-06-10 09:21:00,71.3,67.9,29.93,NE,48,2.0,4.0,89,0.00,,,0.90,Wunderground v.1.15,2013-06-10 14:21:00,
2013-06-10 09:26:00,71.6,68.2,29.93,NW,320,3.0,5.0,89,0.00,,,0.90,Wunderground v.1.15,2013-06-10 14:26:00,
2013-06-10 09:32:00,71.9,68.5,29.93,NNE,13,3.0,3.0,89,0.00,,,0.90,Wunderground v.1.15,2013-06-10 14:32:00,
2013-06-10 09:37:00,72.0,68.2,29.93,NNW,339,3.0,4.0,88,0.00,,,0.90,Wunderground v.1.15,2013-06-10 14:37:00,
2013-06-10 09:43:00,72.3,68.9,29.93,NE,36,3.0,3.0,89,0.00,,,0.90,Wunderground v.1.15,2013-06-10 14:43:00,
2013-06-10 09:48:00,72.4,68.0,29.93,ENE,65,3.0,5.0,86,0.00,,,0.90,Wunderground v.1.15,2013-06-10 14:48:00,
2013-06-10 09:53:00,72.9,69.1,29.93,NNE,13,3.0,3.0,88,0.00,,,0.90,Wunderground v.1.15,2013-06-10 14:53:00,
2013-06-10 09:59:00,73.2,68.8,29.93,NNE,15,3.0,5.0,86,0.00,,,0.90,Wunderground v.1.15,2013-06-10 14:59:00,
2013-06-10 10:04:00,73.4,69.0,29.93,NE,37,3.0,3.0,86,0.00,,,0.90,Wunderground v.1.15,2013-06-10 15:04:00,
2013-06-10 10:10:00,73.9,68.8,29.93,NE,55,2.0,3.0,84,0.00,,,0.90,Wunderground v.1.15,2013-06-10 15:10:00,
2013-06-10 10:15:00,74.3,69.1,29.93,NNE,33,2.0,3.0,84,0.00,,,0.90,Wunderground v.1.15,2013-06-10 15:15:00,
2013-06-10 10:20:00,74.4,69.6,29.93,NNE,33,3.0,3.0,85,0.00,,,0.90,Wunderground v.1.15,2013-06-10 15:20:00,
2013-06-10 10:26:00,74.5,69.3,29.93,NNW,334,2.0,4.0,84,0.00,,,0.90,Wunderground v.1.15,2013-06-10 15:26:00,
2013-06-10 10:32:00,74.9,70.1,29.93,NNE,29,1.0,2.0,85,0.00,,,0.90,Wunderground v.1.15,2013-06-10 15:32:00,
2013-06-10 10:37:00,75.6,70.1,29.93,NE,44,2.0,3.0,83,0.00,,,0.90,Wunderground v.1.15,2013-06-10 15:37:00,
2013-06-10 10:42:00,75.8,68.8,29.93,NE,38,2.0,5.0,79,0.00,,,0.90,Wunderground v.1.15,2013-06-10 15:42:00,
2013-06-10 10:48:00,75.7,69.5,29.94,NNE,16,2.0,5.0,81,0.00,,,0.90,Wunderground v.1.15,2013-06-10 15:48:00,
2013-06-10 10:54:00,76.0,69.4,29.93,NNE,30,2.0,4.0,80,0.00,,,0.90,Wunderground v.1.15,2013-06-10 15:54:00,
2013-06-10 11:00:00,76.5,69.5,29.93,NE,46,3.0,3.0,79,0.00,,,0.90,Wunderground v.1.15,2013-06-10 16:00:00,
2013-06-10 11:05:00,76.8,69.8,29.93,NNW,335,2.0,5.0,79,0.00,,,0.90,Wunderground v.1.15,2013-06-10 16:05:00,
2013-06-10 11:11:00,77.2,69.0,29.93,North,10,2.0,4.0,76,0.00,,,0.90,Wunderground v.1.15,2013-06-10 16:11:00,
2013-06-10 11:16:00,77.3,70.6,29.93,NNE,17,3.0,4.0,80,0.00,,,0.90,Wunderground v.1.15,2013-06-10 16:16:00,
2013-06-10 11:22:00,77.8,70.4,29.93,North,351,2.0,3.0,78,0.00,,,0.90,Wunderground v.1.15,2013-06-10 16:22:00,
2013-06-10 11:27:00,78.4,70.2,29.93,WNW,295,2.0,6.0,76,0.00,,,0.90,Wunderground v.1.15,2013-06-10 16:27:00,
2013-06-10 11:32:00,78.5,70.3,29.93,NNW,344,2.0,3.0,76,0.00,,,0.90,Wunderground v.1.15,2013-06-10 16:32:00,
2013-06-10 11:37:00,78.5,69.9,29.93,NNW,333,2.0,4.0,75,0.00,,,0.90,Wunderground v.1.15,2013-06-10 16:37:00,
2013-06-10 11:43:00,78.4,69.8,29.93,West,272,2.0,4.0,75,0.00,,,0.90,Wunderground v.1.15,2013-06-10 16:43:00,
2013-06-10 11:48:00,78.2,68.8,29.93,ENE,60,3.0,6.0,73,0.00,,,0.90,Wunderground v.1.15,2013-06-10 16:48:00,
2013-06-10 11:54:00,78.6,70.0,29.93,ENE,66,3.0,3.0,75,0.00,,,0.90,Wunderground v.1.15,2013-06-10 16:54:00,
2013-06-10 12:00:00,79.0,70.0,29.93,NE,34,2.0,2.0,74,0.00,,,0.90,Wunderground v.1.15,2013-06-10 17:00:00,
2013-06-10 12:06:00,79.6,68.5,29.93,ENE,68,2.0,4.0,69,0.00,,,0.90,Wunderground v.1.15,2013-06-10 17:06:00,
2013-06-10 12:12:00,79.4,70.0,29.93,North,10,2.0,3.0,73,0.00,,,0.90,Wunderground v.1.15,2013-06-10 17:12:00,
2013-06-10 12:18:00,79.8,70.4,29.93,NNE,30,2.0,3.0,73,0.00,,,0.90,Wunderground v.1.15,2013-06-10 17:18:00,
2013-06-10 12:23:00,80.2,70.8,29.93,NNW,344,2.0,4.0,73,0.00,,,0.90,Wunderground v.1.15,2013-06-10 17:23:00,
2013-06-10 12:29:00,80.7,70.4,29.93,North,5,2.0,4.0,71,0.00,,,0.90,Wunderground v.1.15,2013-06-10 17:29:00,
2013-06-10 12:35:00,80.8,70.1,29.93,WNW,296,2.0,5.0,70,0.00,,,0.90,Wunderground v.1.15,2013-06-10 17:35:00,
2013-06-10 12:40:00,80.7,69.6,29.93,North,3,3.0,3.0,69,0.00,,,0.90,Wunderground v.1.15,2013-06-10 17:40:00,
2013-06-10 12:45:00,80.2,69.5,29.93,North,1,3.0,3.0,70,0.00,,,0.90,Wunderground v.1.15,2013-06-10 17:45:00,
2013-06-10 12:52:00,80.2,69.5,29.92,ENE,58,2.0,3.0,70,0.00,,,0.90,Wunderground v.1.15,2013-06-10 17:52:00,
2013-06-10 12:57:00,80.9,70.2,29.92,NNW,335,2.0,5.0,70,0.00,,,0.90,Wunderground v.1.15,2013-06-10 17:57:00,
2013-06-10 13:02:00,81.0,69.9,29.92,NE,34,2.0,3.0,69,0.00,,,0.90,Wunderground v.1.15,2013-06-10 18:02:00,
2013-06-10 13:08:00,80.9,68.5,29.92,ENE,69,3.0,4.0,66,0.00,,,0.90,Wunderground v.1.15,2013-06-10 18:08:00,
2013-06-10 13:14:00,80.5,69.8,29.92,NNW,337,2.0,2.0,70,0.00,,,0.90,Wunderground v.1.15,2013-06-10 18:14:00,
2013-06-10 13:19:00,80.9,69.8,29.92,NE,43,2.0,4.0,69,0.00,,,0.90,Wunderground v.1.15,2013-06-10 18:19:00,
2013-06-10 13:24:00,81.4,69.8,29.92,North,358,3.0,5.0,68,0.00,,,0.90,Wunderground v.1.15,2013-06-10 18:24:00,
2013-06-10 13:30:00,81.6,68.7,29.91,NW,318,3.0,4.0,65,0.00,,,0.90,Wunderground v.1.15,2013-06-10 18:30:00,
2013-06-10 13:36:00,81.3,68.9,29.91,ENE,61,2.0,4.0,66,0.00,,,0.90,Wunderground v.1.15,2013-06-10 18:36:00,
2013-06-10 13:41:00,81.5,68.6,29.91,NE,55,3.0,3.0,65,0.00,,,0.90,Wunderground v.1.15,2013-06-10 18:41:00,
2013-06-10 13:46:00,81.7,70.1,29.91,NW,309,3.0,6.0,68,0.00,,,0.90,Wunderground v.1.15,2013-06-10 18:46:00,
2013-06-10 13:52:00,82.2,69.7,29.90,NE,37,3.0,4.0,66,0.00,,,0.90,Wunderground v.1.15,2013-06-10 18:52:00,
2013-06-10 13:58:00,82.6,69.6,29.90,NNW,328,2.0,4.0,65,0.00,,,0.90,Wunderground v.1.15,2013-06-10 18:58:00,
2013-06-10 14:03:00,83.0,70.0,29.90,North,10,2.0,3.0,65,0.00,,,0.90,Wunderground v.1.15,2013-06-10 19:03:00,
2013-06-10 14:09:00,82.6,68.3,29.90,NNE,14,3.0,5.0,62,0.00,,,0.90,Wunderground v.1.15,2013-06-10 19:09:00,
2013-06-10 14:14:00,82.7,70.6,29.89,North,351,3.0,3.0,67,0.00,,,0.90,Wunderground v.1.15,2013-06-10 19:14:00,
2013-06-10 14:19:00,83.3,71.2,29.89,ENE,64,2.0,4.0,67,0.00,,,0.90,Wunderground v.1.15,2013-06-10 19:19:00,
2013-06-10 14:25:00,83.5,68.6,29.89,ENE,65,2.0,4.0,61,0.00,,,0.90,Wunderground v.1.15,2013-06-10 19:25:00,
2013-06-10 14:30:00,83.1,70.1,29.89,North,351,2.0,2.0,65,0.00,,,0.90,Wunderground v.1.15,2013-06-10 19:30:00,
2013-06-10 14:36:00,83.3,70.3,29.89,NNW,327,2.0,5.0,65,0.00,,,0.90,Wunderground v.1.15,2013-06-10 19:36:00,
2013-06-10 14:41:00,83.1,69.2,29.89,NNE,20,3.0,3.0,63,0.00,,,0.90,Wunderground v.1.15,2013-06-10 19:41:00,
2013-06-10 14:46:00,83.2,71.1,29.88,NE,47,3.0,4.0,67,0.00,,,0.90,Wunderground v.1.15,2013-06-10 19:46:00,
2013-06-10 14:52:00,83.2,68.8,29.88,NNE,29,3.0,3.0,62,0.00,,,0.90,Wunderground v.1.15,2013-06-10 19:52:00,
2013-06-10 14:57:00,83.0,68.6,29.88,NNW,348,3.0,7.0,62,0.00,,,0.90,Wunderground v.1.15,2013-06-10 19:57:00,
2013-06-10 15:02:00,83.4,71.3,29.87,NNW,344,3.0,4.0,67,0.00,,,0.90,Wunderground v.1.15,2013-06-10 20:02:00,
2013-06-10 15:08:00,83.7,68.8,29.87,NNW,346,2.0,4.0,61,0.00,,,0.90,Wunderground v.1.15,2013-06-10 20:08:00,
2013-06-10 15:13:00,83.6,69.7,29.87,ENE,71,3.0,6.0,63,0.00,,,0.90,Wunderground v.1.15,2013-06-10 20:13:00,
2013-06-10 15:19:00,83.4,69.5,29.87,NNW,345,3.0,6.0,63,0.00,,,0.90,Wunderground v.1.15,2013-06-10 20:19:00,
2013-06-10 15:24:00,83.2,69.3,29.86,ENE,60,3.0,5.0,63,0.00,,,0.90,Wunderground v.1.15,2013-06-10 20:24:00,
2013-06-10 15:29:00,83.2,69.3,29.86,NNW,328,3.0,5.0,63,0.00,,,0.90,Wunderground v.1.15,2013-06-10 20:29:00,
2013-06-10 15:35:00,83.4,69.9,29.86,NNW,345,2.0,4.0,64,0.00,,,0.90,Wunderground v.1.15,2013-06-10 20:35:00,
2013-06-10 15:40:00,83.2,69.8,29.86,West,281,2.0,2.0,64,0.00,,,0.90,Wunderground v.1.15,2013-06-10 20:40:00,
2013-06-10 15:46:00,82.9,68.5,29.86,WNW,297,3.0,3.0,62,0.00,,,0.90,Wunderground v.1.15,2013-06-10 20:46:00,
2013-06-10 15:51:00,82.8,68.0,29.86,NE,56,3.0,3.0,61,0.00,,,0.90,Wunderground v.1.15,2013-06-10 20:51:00,
2013-06-10 15:56:00,82.5,68.2,29.86,NNE,29,3.0,3.0,62,0.00,,,0.90,Wunderground v.1.15,2013-06-10 20:56:00,
2013-06-10 16:02:00,82.7,68.4,29.86,North,10,3.0,8.0,62,0.00,,,0.90,Wunderground v.1.15,2013-06-10 21:02:00,
2013-06-10 16:07:00,82.9,70.4,29.86,North,352,3.0,8.0,66,0.00,,,0.90,Wunderground v.1.15,2013-06-10 21:07:00,
2013-06-10 16:12:00,82.6,68.7,29.87,ENE,57,3.0,3.0,63,0.00,,,0.90,Wunderground v.1.15,2013-06-10 21:12:00,
2013-06-10 16:18:00,81.8,68.4,29.86,NNE,14,2.0,5.0,64,0.00,,,0.90,Wunderground v.1.15,2013-06-10 21:18:00,
2013-06-10 16:23:00,81.1,67.8,29.85,NE,37,3.0,6.0,64,0.00,,,0.90,Wunderground v.1.15,2013-06-10 21:23:00,
2013-06-10 16:29:00,80.7,67.8,29.86,ENE,69,3.0,6.0,65,0.00,,,0.90,Wunderground v.1.15,2013-06-10 21:29:00,
2013-06-10 16:34:00,80.6,67.7,29.85,NNE,26,3.0,4.0,65,0.00,,,0.90,Wunderground v.1.15,2013-06-10 21:34:00,
2013-06-10 16:40:00,80.4,68.0,29.85,North,9,3.0,3.0,66,0.00,,,0.90,Wunderground v.1.15,2013-06-10 21:40:00,
2013-06-10 16:45:00,80.7,68.3,29.85,ENE,71,2.0,5.0,66,0.00,,,0.90,Wunderground v.1.15,2013-06-10 21:45:00,
2013-06-10 16:50:00,80.3,68.3,29.86,North,8,3.0,4.0,67,0.00,,,0.90,Wunderground v.1.15,2013-06-10 21:50:00,
2013-06-10 16:56:00,79.6,68.1,29.86,North,1,2.0,4.0,68,0.00,,,0.90,Wunderground v.1.15,2013-06-10 21:56:00,
2013-06-10 17:01:00,79.3,67.4,29.86,NE,56,2.0,3.0,67,0.00,,,0.90,Wunderground v.1.15,2013-06-10 22:01:00,
2013-06-10 17:07:00,79.3,67.4,29.86,North,356,3.0,3.0,67,0.00,,,0.90,Wunderground v.1.15,2013-06-10 22:07:00,
2013-06-10 17:12:00,79.1,67.2,29.86,ENE,60,2.0,2.0,67,0.00,,,0.90,Wunderground v.1.15,2013-06-10 22:12:00,
2013-06-10 17:17:00,78.8,67.8,29.86,ENE,58,2.0,2.0,69,0.00,,,0.90,Wunderground v.1.15,2013-06-10 22:17:00,
2013-06-10 17:23:00,78.8,67.3,29.86,ENE,68,1.0,2.0,68,0.00,,,0.90,Wunderground v.1.15,2013-06-10 22:23:00,
2013-06-10 17:28:00,78.6,67.6,29.86,NE,49,1.0,2.0,69,0.00,,,0.90,Wunderground v.1.15,2013-06-10 22:28:00,
2013-06-10 17:34:00,78.5,67.9,29.86,ENE,65,1.0,2.0,70,0.00,,,0.90,Wunderground v.1.15,2013-06-10 22:34:00,
2013-06-10 17:39:00,78.4,67.8,29.86,NE,48,1.0,2.0,70,0.00,,,0.90,Wunderground v.1.15,2013-06-10 22:39:00,
2013-06-10 17:45:00,78.3,68.1,29.86,ENE,62,0.0,2.0,71,0.00,,,0.90,Wunderground v.1.15,2013-06-10 22:45:00,
2013-06-10 17:50:00,78.2,68.0,29.85,NNE,22,0.0,2.0,71,0.00,,,0.90,Wunderground v.1.15,2013-06-10 22:50:00,
2013-06-10 17:55:00,78.1,67.9,29.86,North,358,0.0,2.0,71,0.00,,,0.90,Wunderground v.1.15,2013-06-10 22:55:00,
2013-06-10 18:01:00,78.0,67.8,29.86,North,358,0.0,2.0,71,0.00,,,0.90,Wunderground v.1.15,2013-06-10 23:01:00,
2013-06-10 18:06:00,78.0,69.0,29.86,NNW,334,0.0,2.0,74,0.00,,,0.90,Wunderground v.1.15,2013-06-10 23:06:00,
2013-06-10 18:11:00,77.4,68.9,29.87,West,280,0.0,2.0,75,0.00,,,0.90,Wunderground v.1.15,2013-06-10 23:11:00,
2013-06-10 18:16:00,76.6,67.3,29.86,East,79,1.0,4.0,73,0.00,,,0.90,Wunderground v.1.15,2013-06-10 23:16:00,
2013-06-10 18:22:00,74.6,66.9,29.86,West,276,2.0,2.0,77,0.00,,,0.90,Wunderground v.1.15,2013-06-10 23:22:00,
2013-06-10 18:27:00,73.8,67.6,29.87,WSW,240,1.0,2.0,81,0.00,,,0.90,Wunderground v.1.15,2013-06-10 23:27:00,
2013-06-10 18:33:00,73.4,67.2,29.87,SW,228,0.0,2.0,81,0.00,,,0.90,Wunderground v.1.15,2013-06-10 23:33:00,
2013-06-10 18:38:00,72.8,67.3,29.87,ESE,113,1.0,2.0,83,0.00,,,0.90,Wunderground v.1.15,2013-06-10 23:38:00,
2013-06-10 18:43:00,72.6,67.8,29.87,NW,313,1.0,2.0,85,0.00,,,0.90,Wunderground v.1.15,2013-06-10 23:43:00,
2013-06-10 18:49:00,72.0,67.6,29.87,WNW,282,1.0,2.0,86,0.00,,,0.90,Wunderground v.1.15,2013-06-10 23:49:00,
2013-06-10 18:54:00,72.2,68.1,29.87,WNW,282,0.0,2.0,87,0.00,,,0.90,Wunderground v.1.15,2013-06-10 23:54:00,
2013-06-10 19:00:00,72.3,67.9,29.87,West,265,0.0,2.0,86,0.00,,,0.90,Wunderground v.1.15,2013-06-11 00:00:00,
2013-06-10 19:05:00,72.1,68.0,29.87,West,275,1.0,2.0,87,0.00,,,0.90,Wunderground v.1.15,2013-06-11 00:05:00,
2013-06-10 19:10:00,72.0,67.9,29.87,West,276,0.0,2.0,87,0.00,,,0.90,Wunderground v.1.15,2013-06-11 00:10:00,
2013-06-10 19:16:00,71.9,67.5,29.87,West,274,0.0,2.0,86,0.00,,,0.90,Wunderground v.1.15,2013-06-11 00:16:00,
2013-06-10 19:21:00,72.2,67.8,29.87,West,274,0.0,2.0,86,0.00,,,0.90,Wunderground v.1.15,2013-06-11 00:21:00,
2013-06-10 19:27:00,72.2,68.1,29.87,West,274,0.0,2.0,87,0.00,,,0.90,Wunderground v.1.15,2013-06-11 00:27:00,
2013-06-10 19:32:00,71.9,67.8,29.86,West,274,0.0,2.0,87,0.00,,,0.90,Wunderground v.1.15,2013-06-11 00:32:00,
2013-06-10 19:37:00,71.5,67.4,29.86,West,274,0.0,2.0,87,0.00,,,0.90,Wunderground v.1.15,2013-06-11 00:37:00,
2013-06-10 19:43:00,71.1,67.0,29.87,West,274,0.0,2.0,87,0.00,,,0.90,Wunderground v.1.15,2013-06-11 00:43:00,
2013-06-10 19:48:00,70.9,67.2,29.86,SE,137,0.0,2.0,88,0.00,,,0.90,Wunderground v.1.15,2013-06-11 00:48:00,
2013-06-10 19:54:00,70.6,66.5,29.86,SE,137,0.0,2.0,87,0.00,,,0.90,Wunderground v.1.15,2013-06-11 00:54:00,
2013-06-10 19:59:00,70.9,67.2,29.87,SE,136,0.0,2.0,88,0.00,,,0.90,Wunderground v.1.15,2013-06-11 00:59:00,
2013-06-10 20:04:00,70.9,66.5,29.87,SE,137,0.0,2.0,86,0.00,,,0.90,Wunderground v.1.15,2013-06-11 01:04:00,
2013-06-10 20:10:00,70.8,66.7,29.87,SE,136,0.0,2.0,87,0.00,,,0.90,Wunderground v.1.15,2013-06-11 01:10:00,
2013-06-10 20:15:00,70.7,66.6,29.87,SE,137,0.0,2.0,87,0.00,,,0.90,Wunderground v.1.15,2013-06-11 01:15:00,
2013-06-10 20:21:00,70.7,67.0,29.87,SE,137,0.0,2.0,88,0.00,,,0.90,Wunderground v.1.15,2013-06-11 01:21:00,
2013-06-10 20:26:00,70.5,67.1,29.87,SE,136,0.0,2.0,89,0.00,,,0.90,Wunderground v.1.15,2013-06-11 01:26:00,
2013-06-10 20:32:00,70.2,66.8,29.88,SE,136,0.0,2.0,89,0.00,,,0.90,Wunderground v.1.15,2013-06-11 01:32:00,
2013-06-10 20:37:00,70.1,67.0,29.88,SE,137,0.0,2.0,90,0.00,,,0.90,Wunderground v.1.15,2013-06-11 01:37:00,
2013-06-10 20:42:00,70.0,67.3,29.88,SE,137,0.0,2.0,91,0.00,,,0.90,Wunderground v.1.15,2013-06-11 01:42:00,
2013-06-10 20:49:00,69.6,67.2,29.88,SE,136,0.0,2.0,92,0.00,,,0.90,Wunderground v.1.15,2013-06-11 01:49:00,
2013-06-10 20:54:00,69.4,67.0,29.88,SE,136,0.0,2.0,92,0.00,,,0.90,Wunderground v.1.15,2013-06-11 01:54:00,
2013-06-10 21:00:00,69.2,67.1,29.88,SE,137,0.0,2.0,93,0.00,,,0.90,Wunderground v.1.15,2013-06-11 02:00:00,
2013-06-10 21:05:00,69.2,67.1,29.89,SE,136,0.0,2.0,93,0.00,,,0.90,Wunderground v.1.15,2013-06-11 02:05:00,
2013-06-10 21:10:00,69.1,67.0,29.89,SE,137,1.0,1.0,93,0.00,,,0.90,Wunderground v.1.15,2013-06-11 02:10:00,
2013-06-10 21:16:00,69.2,67.4,29.90,SE,137,0.0,2.0,94,0.00,,,0.90,Wunderground v.1.15,2013-06-11 02:16:00,
2013-06-10 21:21:00,69.2,67.1,29.89,SE,137,0.0,2.0,93,0.00,,,0.90,Wunderground v.1.15,2013-06-11 02:21:00,
2013-06-10 21:26:00,69.4,67.6,29.90,SE,137,0.0,2.0,94,0.00,,,0.90,Wunderground v.1.15,2013-06-11 02:26:00,
2013-06-10 21:32:00,69.6,67.8,29.90,SE,137,0.0,2.0,94,0.00,,,0.90,Wunderground v.1.15,2013-06-11 02:32:00,
2013-06-10 21:37:00,69.6,67.5,29.90,SE,137,0.0,2.0,93,0.00,,,0.90,Wunderground v.1.15,2013-06-11 02:37:00,
2013-06-10 21:42:00,69.6,67.5,29.90,SE,137,0.0,2.0,93,0.00,,,0.90,Wunderground v.1.15,2013-06-11 02:42:00,
2013-06-10 21:48:00,69.7,67.9,29.90,SE,137,0.0,2.0,94,0.00,,,0.90,Wunderground v.1.15,2013-06-11 02:48:00,
2013-06-10 21:53:00,69.8,68.0,29.90,SE,137,0.0,2.0,94,0.00,,,0.90,Wunderground v.1.15,2013-06-11 02:53:00,
2013-06-10 21:59:00,69.8,67.7,29.91,SE,138,0.0,2.0,93,0.00,,,0.90,Wunderground v.1.15,2013-06-11 02:59:00,
2013-06-10 22:04:00,69.7,67.6,29.90,SE,138,0.0,2.0,93,0.00,,,0.90,Wunderground v.1.15,2013-06-11 03:04:00,
2013-06-10 22:09:00,69.6,67.8,29.90,SSW,209,0.0,2.0,94,0.00,,,0.90,Wunderground v.1.15,2013-06-11 03:09:00,
2013-06-10 22:15:00,69.4,67.6,29.91,ESE,116,0.0,2.0,94,0.00,,,0.90,Wunderground v.1.15,2013-06-11 03:15:00,
2013-06-10 22:20:00,69.3,67.5,29.93,WSW,250,1.0,2.0,94,0.00,,,0.90,Wunderground v.1.15,2013-06-11 03:20:00,
2013-06-10 22:25:00,69.1,67.6,29.92,North,356,2.0,2.0,95,0.40,,,0.94,Wunderground v.1.15,2013-06-11 03:25:00,
2013-06-10 22:31:00,69.1,67.6,29.93,SW,223,1.0,2.0,95,0.08,,,0.94,Wunderground v.1.15,2013-06-11 03:31:00,
2013-06-10 22:36:00,68.9,67.4,29.92,SSE,153,1.0,2.0,95,0.05,,,0.94,Wunderground v.1.15,2013-06-11 03:36:00,
2013-06-10 22:42:00,68.8,67.3,29.92,West,265,1.0,2.0,95,0.00,,,0.94,Wunderground v.1.15,2013-06-11 03:42:00,
2013-06-10 22:47:00,68.8,67.6,29.92,SW,223,1.0,2.0,96,0.00,,,0.94,Wunderground v.1.15,2013-06-11 03:47:00,
2013-06-10 22:52:00,68.6,67.4,29.92,SW,223,0.0,2.0,96,0.00,,,0.94,Wunderground v.1.15,2013-06-11 03:52:00,
2013-06-10 22:58:00,68.5,67.3,29.92,SW,223,0.0,2.0,96,0.00,,,0.94,Wunderground v.1.15,2013-06-11 03:58:00,
2013-06-10 23:01:00,68.4,67.2,29.92,SW,223,0.0,2.0,96,0.00,,,0.94,Wunderground v.1.15,2013-06-11 04:01:00,
2013-06-10 23:02:00,68.4,67.2,29.92,SW,223,0.0,2.0,96,0.00,,,0.94,Wunderground v.1.15,2013-06-11 04:02:00,
2013-06-10 23:04:00,68.4,67.2,29.93,SW,219,0.0,2.0,96,0.00,,,0.94,Wunderground v.1.15,2013-06-11 04:04:00,
2013-06-10 23:05:00,68.4,67.2,29.93,SW,219,0.0,2.0,96,0.00,,,0.94,Wunderground v.1.15,2013-06-11 04:05:00,
2013-06-10 23:07:00,68.4,67.2,29.93,SW,219,0.0,2.0,96,0.00,,,0.94,Wunderground v.1.15,2013-06-11 04:07:00,
2013-06-10 23:12:00,68.3,67.1,29.93,SW,219,0.0,2.0,96,0.00,,,0.94,Wunderground v.1.15,2013-06-11 04:12:00,
2013-06-10 23:18:00,68.3,67.1,29.93,SW,219,0.0,2.0,96,0.00,,,0.94,Wunderground v.1.15,2013-06-11 04:18:00,
2013-06-10 23:23:00,68.2,67.0,29.93,SW,219,0.0,2.0,96,0.00,,,0.94,Wunderground v.1.15,2013-06-11 04:23:00,
2013-06-10 23:28:00,68.1,66.9,29.93,WSW,246,1.0,2.0,96,0.00,,,0.94,Wunderground v.1.15,2013-06-11 04:28:00,
2013-06-10 23:34:00,68.0,66.8,29.93,ESE,114,1.0,2.0,96,0.00,,,0.94,Wunderground v.1.15,2013-06-11 04:34:00,
2013-06-10 23:39:00,68.1,67.2,29.94,ESE,114,1.0,2.0,97,0.00,,,0.94,Wunderground v.1.15,2013-06-11 04:39:00,
2013-06-10 23:45:00,68.2,67.3,29.94,NW,306,2.0,4.0,97,0.62,,,0.99,Wunderground v.1.15,2013-06-11 04:45:00,
2013-06-10 23:50:00,68.2,67.3,29.94,WNW,282,1.0,2.0,97,0.11,,,0.99,Wunderground v.1.15,2013-06-11 04:50:00,
2013-06-10 23:55:00,68.1,67.2,29.94,WNW,303,1.0,2.0,97,0.06,,,0.99,Wunderground v.1.15,2013-06-11 04:55:00,